Data No, UTC Date,UTC Time,Latitude,Longitude,Course(deg),Temp(degC),Sal(psu)
559,2017/10/27,9:18,42-36.53N,141-36.85E,190,13.863,32.9874
560,2017/10/27,9:19,42-36.25N,141-36.86E,177,14.101,33.1466
561,2017/10/27,9:20,42-35.96N,141-36.89E,175,14.29,33.2187
562,2017/10/27,9:21,42-35.65N,141-36.92E,175,14.407,33.4659
563,2017/10/27,9:22,42-35.33N,141-36.95E,176,14.138,33.5994
564,2017/10/27,9:23,42-35.01N,141-36.97E,177,13.9,33.6134
565,2017/10/27,9:24,42-34.69N,141-36.98E,178,13.886,33.5199
566,2017/10/27,9:25,42-34.36N,141-36.99E,179,13.738,33.4925
567,2017/10/27,9:26,42-34.03N,141-36.99E,180,13.737,33.4761
568,2017/10/27,9:27,42-33.70N,141-36.99E,179,13.734,33.4462
569,2017/10/27,9:28,42-33.35N,141-36.99E,179,13.725,33.454
570,2017/10/27,9:29,42-33.02N,141-37.00E,179,13.76,33.4339
571,2017/10/27,9:30,42-32.67N,141-37.00E,179,13.711,33.4186
572,2017/10/27,9:31,42-32.32N,141-37.01E,179,13.691,33.3693
573,2017/10/27,9:32,42-31.97N,141-37.02E,179,13.677,33.3393
574,2017/10/27,9:33,42-31.60N,141-37.02E,179,13.749,33.3216
575,2017/10/27,9:34,42-31.24N,141-37.03E,179,13.835,33.3554
576,2017/10/27,9:35,42-30.88N,141-37.03E,179,13.853,33.3808
577,2017/10/27,9:36,42-30.51N,141-37.03E,179,13.81,33.3857
578,2017/10/27,9:37,42-30.14N,141-37.04E,179,13.689,33.3738
579,2017/10/27,9:38,42-29.77N,141-37.04E,180,13.569,33.3466
580,2017/10/27,9:39,42-29.39N,141-37.03E,180,13.347,33.3069
581,2017/10/27,9:40,42-29.02N,141-37.03E,180,13.303,33.2619
582,2017/10/27,9:41,42-28.64N,141-37.03E,180,13.164,33.2173
583,2017/10/27,9:42,42-28.25N,141-37.03E,180,13.15,33.1661
584,2017/10/27,9:43,42-27.87N,141-37.03E,180,13.229,33.1002
585,2017/10/27,9:44,42-27.48N,141-37.02E,180,13.217,33.0935
586,2017/10/27,9:45,42-27.08N,141-37.01E,180,13.189,33.0958
587,2017/10/27,9:46,42-26.68N,141-37.01E,180,13.126,33.0946
588,2017/10/27,9:47,42-26.29N,141-37.00E,180,13.148,33.0789
589,2017/10/27,9:48,42-25.89N,141-36.99E,180,13.078,33.0745
590,2017/10/27,9:49,42-25.50N,141-36.99E,180,13.038,33.0668
591,2017/10/27,9:50,42-25.11N,141-36.98E,180,13.033,33.0535
592,2017/10/27,9:51,42-24.71N,141-36.98E,180,13.068,33.0509
593,2017/10/27,9:52,42-24.31N,141-36.98E,181,13.115,33.0481
594,2017/10/27,9:53,42-23.93N,141-36.97E,180,13.045,33.0694
595,2017/10/27,9:54,42-23.53N,141-36.96E,180,12.996,33.0667
596,2017/10/27,9:55,42-23.13N,141-36.95E,181,12.975,33.0474
597,2017/10/27,9:56,42-22.74N,141-36.94E,181,12.944,33.0305
598,2017/10/27,9:57,42-22.35N,141-36.93E,181,12.938,33.0198
599,2017/10/27,9:58,42-21.95N,141-36.92E,181,12.903,33.0147
600,2017/10/27,9:59,42-21.55N,141-36.91E,181,12.876,33.0001
601,2017/10/27,10:00,42-21.16N,141-36.89E,181,12.782,32.9942
602,2017/10/27,10:01,42-20.77N,141-36.88E,182,12.723,32.9705
603,2017/10/27,10:02,42-20.38N,141-36.86E,182,12.701,32.9397
604,2017/10/27,10:03,42-19.99N,141-36.84E,182,12.709,32.9261
605,2017/10/27,10:04,42-19.60N,141-36.82E,182,12.791,32.9193
606,2017/10/27,10:05,42-19.21N,141-36.80E,182,13.232,32.9268
607,2017/10/27,10:06,42-18.82N,141-36.78E,182,14.773,32.9712
608,2017/10/27,10:07,42-18.42N,141-36.76E,182,15.353,33.2256
609,2017/10/27,10:08,42-18.04N,141-36.74E,182,15.79,33.5612
610,2017/10/27,10:09,42-17.65N,141-36.72E,181,15.823,33.7559
611,2017/10/27,10:10,42-17.27N,141-36.71E,181,15.898,33.8253
612,2017/10/27,10:11,42-16.88N,141-36.69E,182,15.932,33.8398
613,2017/10/27,10:12,42-16.50N,141-36.67E,182,15.948,33.8466
614,2017/10/27,10:13,42-16.12N,141-36.65E,182,15.932,33.85
615,2017/10/27,10:14,42-15.73N,141-36.64E,182,15.912,33.8504
616,2017/10/27,10:15,42-15.35N,141-36.62E,181,15.881,33.8476
617,2017/10/27,10:16,42-14.97N,141-36.60E,182,15.788,33.845
618,2017/10/27,10:17,42-14.58N,141-36.59E,181,15.234,33.8361
619,2017/10/27,10:18,42-14.21N,141-36.57E,181,14.324,33.8098
620,2017/10/27,10:19,42-13.82N,141-36.56E,182,14.027,33.5982
621,2017/10/27,10:20,42-13.43N,141-36.54E,181,13.822,33.419
622,2017/10/27,10:21,42-13.05N,141-36.52E,181,13.772,33.3299
623,2017/10/27,10:22,42-12.68N,141-36.51E,181,13.828,33.2883
624,2017/10/27,10:23,42-12.29N,141-36.50E,180,13.904,33.2988
625,2017/10/27,10:24,42-11.91N,141-36.49E,181,13.749,33.3418
626,2017/10/27,10:25,42-11.52N,141-36.48E,181,13.692,33.2975
627,2017/10/27,10:26,42-11.13N,141-36.47E,181,13.644,33.2572
628,2017/10/27,10:27,42-10.75N,141-36.46E,180,13.667,33.2233
629,2017/10/27,10:28,42-10.36N,141-36.45E,180,13.66,33.2204
630,2017/10/27,10:29,42-09.98N,141-36.45E,180,13.665,33.2427
631,2017/10/27,10:30,42-09.59N,141-36.44E,180,13.696,33.2675
632,2017/10/27,10:31,42-09.20N,141-36.43E,180,13.729,33.2925
633,2017/10/27,10:32,42-08.81N,141-36.42E,180,13.805,33.3006
634,2017/10/27,10:33,42-08.41N,141-36.41E,180,13.895,33.3099
635,2017/10/27,10:34,42-08.03N,141-36.41E,181,14.028,33.3424
636,2017/10/27,10:35,42-07.64N,141-36.40E,180,14.013,33.4252
637,2017/10/27,10:36,42-07.25N,141-36.39E,180,14.26,33.4603
638,2017/10/27,10:37,42-06.87N,141-36.39E,180,14.381,33.5049
639,2017/10/27,10:38,42-06.48N,141-36.38E,180,14.561,33.584
640,2017/10/27,10:39,42-06.08N,141-36.38E,180,14.7,33.6526
641,2017/10/27,10:40,42-05.70N,141-36.38E,180,14.764,33.6861
642,2017/10/27,10:41,42-05.31N,141-36.38E,180,14.797,33.7015
643,2017/10/27,10:42,42-04.92N,141-36.37E,180,14.784,33.7245
644,2017/10/27,10:43,42-04.52N,141-36.37E,180,14.791,33.7318
645,2017/10/27,10:44,42-04.13N,141-36.37E,180,14.802,33.7352
646,2017/10/27,10:45,42-03.74N,141-36.37E,179,14.803,33.7392
647,2017/10/27,10:46,42-03.35N,141-36.37E,180,14.819,33.7458
648,2017/10/27,10:47,42-02.96N,141-36.36E,180,14.854,33.7612
649,2017/10/27,10:48,42-02.56N,141-36.36E,180,14.801,33.7665
650,2017/10/27,10:49,42-02.17N,141-36.37E,179,15.027,33.7731
651,2017/10/27,10:50,42-01.78N,141-36.37E,179,15.258,33.7874
652,2017/10/27,10:51,42-01.39N,141-36.37E,179,15.376,33.8334
653,2017/10/27,10:52,42-00.99N,141-36.37E,180,15.417,33.8551
654,2017/10/27,10:53,42-00.60N,141-36.37E,180,15.44,33.8658
655,2017/10/27,10:54,42-00.20N,141-36.37E,180,15.467,33.8705
656,2017/10/27,10:55,41-59.80N,141-36.37E,179,15.498,33.8743
657,2017/10/27,10:56,41-59.42N,141-36.37E,180,15.515,33.8776
658,2017/10/27,10:57,41-59.02N,141-36.36E,180,15.521,33.8793
659,2017/10/27,10:58,41-58.63N,141-36.36E,180,15.528,33.88
660,2017/10/27,10:59,41-58.23N,141-36.35E,180,15.534,33.8801
661,2017/10/27,11:00,41-57.83N,141-36.35E,180,15.544,33.8792
662,2017/10/27,11:01,41-57.45N,141-36.34E,180,15.541,33.8781
663,2017/10/27,11:02,41-57.05N,141-36.33E,180,15.543,33.8775
664,2017/10/27,11:03,41-56.65N,141-36.33E,181,15.54,33.8762
665,2017/10/27,11:04,41-56.25N,141-36.32E,181,15.543,33.875
666,2017/10/27,11:05,41-55.86N,141-36.30E,181,15.554,33.8746
667,2017/10/27,11:06,41-55.47N,141-36.29E,181,15.587,33.8765
668,2017/10/27,11:07,41-55.08N,141-36.28E,181,15.597,33.8832
669,2017/10/27,11:08,41-54.68N,141-36.27E,181,15.605,33.8907
670,2017/10/27,11:09,41-54.28N,141-36.25E,181,15.623,33.8941
671,2017/10/27,11:10,41-53.89N,141-36.24E,181,15.601,33.8977
672,2017/10/27,11:11,41-53.51N,141-36.22E,182,15.576,33.8976
673,2017/10/27,11:12,41-53.11N,141-36.21E,182,15.557,33.89
674,2017/10/27,11:13,41-52.72N,141-36.19E,182,15.547,33.8837
675,2017/10/27,11:14,41-52.32N,141-36.17E,182,15.534,33.8799
676,2017/10/27,11:15,41-51.93N,141-36.15E,182,15.548,33.8781
677,2017/10/27,11:16,41-51.55N,141-36.13E,182,15.552,33.8775
678,2017/10/27,11:17,41-51.16N,141-36.11E,182,15.545,33.8794
679,2017/10/27,11:18,41-50.77N,141-36.08E,182,15.535,33.8819
680,2017/10/27,11:19,41-50.38N,141-36.06E,182,15.518,33.8829
681,2017/10/27,11:20,41-49.98N,141-36.04E,182,15.496,33.8826
682,2017/10/27,11:21,41-49.59N,141-36.01E,182,15.438,33.8812
683,2017/10/27,11:22,41-49.21N,141-35.99E,183,15.397,33.8784
684,2017/10/27,11:23,41-48.83N,141-35.96E,182,15.366,33.8756
685,2017/10/27,11:24,41-48.44N,141-35.94E,182,15.35,33.876
686,2017/10/27,11:25,41-48.05N,141-35.91E,183,15.336,33.8786
687,2017/10/27,11:26,41-47.66N,141-35.88E,183,15.32,33.8776
688,2017/10/27,11:27,41-47.27N,141-35.85E,182,15.297,33.8763
689,2017/10/27,11:28,41-46.89N,141-35.83E,182,15.244,33.8754
690,2017/10/27,11:29,41-46.51N,141-35.80E,183,15.159,33.875
691,2017/10/27,11:30,41-46.12N,141-35.77E,182,15.105,33.8708
692,2017/10/27,11:31,41-45.74N,141-35.75E,183,15.079,33.858
693,2017/10/27,11:32,41-45.36N,141-35.72E,183,15.2,33.8594
694,2017/10/27,11:33,41-44.98N,141-35.69E,182,15.193,33.8664
695,2017/10/27,11:34,41-44.60N,141-35.67E,182,15.051,33.8782
696,2017/10/27,11:35,41-44.23N,141-35.67E,178,14.257,33.8494
697,2017/10/27,11:36,41-43.85N,141-35.69E,178,14.265,33.7654
698,2017/10/27,11:37,41-43.46N,141-35.70E,179,14.27,33.7429
699,2017/10/27,11:38,41-43.07N,141-35.70E,179,14.491,33.7104
700,2017/10/27,11:39,41-42.69N,141-35.70E,178,14.596,33.7152
701,2017/10/27,11:40,41-42.29N,141-35.72E,178,14.596,33.7775
702,2017/10/27,11:41,41-41.89N,141-35.73E,178,14.65,33.8026
703,2017/10/27,11:42,41-41.50N,141-35.74E,179,14.748,33.8092
704,2017/10/27,11:43,41-41.11N,141-35.75E,178,14.555,33.8092
705,2017/10/27,11:44,41-40.72N,141-35.76E,179,14.622,33.7837
706,2017/10/27,11:45,41-40.32N,141-35.75E,180,14.62,33.7553
707,2017/10/27,11:46,41-39.91N,141-35.75E,180,14.401,33.7534
708,2017/10/27,11:47,41-39.52N,141-35.76E,176,14.251,33.7361
709,2017/10/27,11:48,41-39.12N,141-35.78E,178,14.063,33.7369
710,2017/10/27,11:49,41-38.74N,141-35.78E,180,14.218,33.7675
711,2017/10/27,11:50,41-38.34N,141-35.77E,180,14.22,33.7512
712,2017/10/27,11:51,41-37.95N,141-35.77E,180,14.193,33.734
713,2017/10/27,11:52,41-37.55N,141-35.76E,181,14.08,33.7123
714,2017/10/27,11:53,41-37.17N,141-35.75E,180,14.043,33.6637
715,2017/10/27,11:54,41-36.78N,141-35.74E,180,14.02,33.6007
716,2017/10/27,11:55,41-36.39N,141-35.74E,180,13.992,33.5425
717,2017/10/27,11:56,41-36.01N,141-35.74E,179,14.135,33.5299
718,2017/10/27,11:57,41-35.62N,141-35.73E,180,14.171,33.4821
719,2017/10/27,11:58,41-35.25N,141-35.73E,180,14.175,33.4863
720,2017/10/27,11:59,41-34.87N,141-35.73E,180,14.153,33.4996
721,2017/10/27,12:00,41-34.49N,141-35.73E,179,14.128,33.5023
722,2017/10/27,12:01,41-34.11N,141-35.73E,180,14.138,33.5238
723,2017/10/27,12:02,41-33.74N,141-35.73E,179,14.211,33.5486
724,2017/10/27,12:03,41-33.37N,141-35.73E,179,14.462,33.5723
725,2017/10/27,12:04,41-32.99N,141-35.74E,179,14.658,33.6338
726,2017/10/27,12:05,41-32.61N,141-35.74E,178,14.88,33.7367
727,2017/10/27,12:06,41-32.23N,141-35.75E,179,14.835,33.7355
728,2017/10/27,12:07,41-31.86N,141-35.75E,179,14.742,33.786
729,2017/10/27,12:08,41-31.49N,141-35.76E,179,14.704,33.8124
730,2017/10/27,12:09,41-31.11N,141-35.76E,179,14.793,33.8234
731,2017/10/27,12:10,41-30.73N,141-35.77E,178,15.017,33.8296
732,2017/10/27,12:11,41-30.36N,141-35.78E,179,15.363,33.8338
733,2017/10/27,12:12,41-29.99N,141-35.78E,179,15.335,33.8501
734,2017/10/27,12:13,41-29.61N,141-35.79E,179,15.161,33.8685
735,2017/10/27,12:14,41-29.23N,141-35.80E,179,15.397,33.8763
736,2017/10/27,12:15,41-28.86N,141-35.80E,179,15.347,33.8794
737,2017/10/27,12:16,41-28.49N,141-35.81E,178,15.745,33.8896
738,2017/10/27,12:17,41-28.12N,141-35.83E,178,15.871,33.8911
739,2017/10/27,12:18,41-27.74N,141-35.84E,178,16.091,33.8813
740,2017/10/27,12:19,41-27.37N,141-35.85E,178,16.393,33.8839
741,2017/10/27,12:20,41-26.99N,141-35.86E,178,16.533,33.8665
742,2017/10/27,12:21,41-26.63N,141-35.88E,178,16.667,33.8485
743,2017/10/27,12:22,41-26.25N,141-35.89E,178,16.659,33.8362
744,2017/10/27,12:23,41-25.88N,141-35.90E,178,16.649,33.8325
745,2017/10/27,12:24,41-25.51N,141-35.92E,178,16.698,33.8374
746,2017/10/27,12:25,41-25.14N,141-35.94E,176,16.812,33.8432
747,2017/10/27,12:26,41-24.77N,141-35.99E,173,16.841,33.8392
748,2017/10/27,12:27,41-24.39N,141-36.06E,171,16.858,33.8393
749,2017/10/27,12:28,41-24.03N,141-36.15E,168,16.873,33.838
750,2017/10/27,12:29,41-23.66N,141-36.26E,166,16.904,33.8384
751,2017/10/27,12:30,41-23.30N,141-36.39E,165,16.925,33.8399
752,2017/10/27,12:31,41-22.93N,141-36.52E,165,16.928,33.838
753,2017/10/27,12:32,41-22.57N,141-36.64E,165,16.926,33.8363
754,2017/10/27,12:33,41-22.19N,141-36.77E,165,16.933,33.8344
755,2017/10/27,12:34,41-21.83N,141-36.90E,165,16.94,33.8342
756,2017/10/27,12:35,41-21.46N,141-37.02E,165,16.941,33.8344
757,2017/10/27,12:36,41-21.10N,141-37.14E,165,16.955,33.8342
758,2017/10/27,12:37,41-20.73N,141-37.27E,165,16.982,33.8333
759,2017/10/27,12:38,41-20.36N,141-37.39E,165,16.992,33.8363
760,2017/10/27,12:39,41-20.00N,141-37.52E,165,17.001,33.8376
761,2017/10/27,12:40,41-19.62N,141-37.64E,166,17.02,33.8368
762,2017/10/27,12:41,41-19.25N,141-37.77E,165,17.028,33.8365
763,2017/10/27,12:42,41-18.89N,141-37.89E,165,17.059,33.8367
764,2017/10/27,12:43,41-18.52N,141-38.01E,166,17.087,33.8364
765,2017/10/27,12:44,41-18.15N,141-38.13E,165,17.093,33.8351
766,2017/10/27,12:45,41-17.77N,141-38.26E,165,17.027,33.8308
767,2017/10/27,12:46,41-17.40N,141-38.38E,166,17.045,33.8044
768,2017/10/27,12:47,41-17.04N,141-38.50E,166,17.071,33.7753
769,2017/10/27,12:48,41-16.67N,141-38.62E,166,17.073,33.7599
770,2017/10/27,12:49,41-16.29N,141-38.74E,166,17.073,33.7566
771,2017/10/27,12:50,41-15.92N,141-38.86E,166,17.09,33.7579
772,2017/10/27,12:51,41-15.54N,141-38.99E,165,17.099,33.757
773,2017/10/27,12:52,41-15.18N,141-39.11E,165,17.141,33.7559
774,2017/10/27,12:53,41-14.81N,141-39.24E,164,17.158,33.755
775,2017/10/27,12:54,41-14.44N,141-39.38E,163,17.175,33.7541
776,2017/10/27,12:55,41-14.07N,141-39.53E,163,17.181,33.7541
777,2017/10/27,12:56,41-13.70N,141-39.68E,162,17.184,33.7582
778,2017/10/27,12:57,41-13.34N,141-39.83E,162,17.176,33.7578
779,2017/10/27,12:58,41-12.98N,141-39.97E,163,17.173,33.7599
780,2017/10/27,12:59,41-12.61N,141-40.12E,163,17.175,33.7652
781,2017/10/27,13:00,41-12.25N,141-40.26E,162,17.172,33.7696
782,2017/10/27,13:01,41-11.88N,141-40.41E,163,17.161,33.7759
783,2017/10/27,13:02,41-11.51N,141-40.55E,163,17.16,33.7783
784,2017/10/27,13:03,41-11.15N,141-40.69E,163,17.165,33.7774
785,2017/10/27,13:04,41-10.78N,141-40.83E,164,17.166,33.7785
786,2017/10/27,13:05,41-10.41N,141-40.96E,164,17.168,33.7832
787,2017/10/27,13:06,41-10.04N,141-41.09E,165,17.164,33.7867
788,2017/10/27,13:07,41-09.67N,141-41.22E,164,17.163,33.7894
789,2017/10/27,13:08,41-09.29N,141-41.36E,164,17.147,33.7925
790,2017/10/27,13:09,41-08.93N,141-41.48E,165,17.128,33.7957
791,2017/10/27,13:10,41-08.56N,141-41.61E,165,17.127,33.7925
792,2017/10/27,13:11,41-08.19N,141-41.74E,165,17.149,33.7934
793,2017/10/27,13:12,41-07.81N,141-41.87E,165,17.157,33.8061
794,2017/10/27,13:13,41-07.44N,141-41.99E,165,17.138,33.8276
795,2017/10/27,13:14,41-07.06N,141-42.12E,165,17.009,33.8367
796,2017/10/27,13:15,41-06.69N,141-42.25E,164,16.828,33.8432
797,2017/10/27,13:16,41-06.33N,141-42.37E,165,16.776,33.8396
798,2017/10/27,13:17,41-05.95N,141-42.49E,166,16.76,33.8331
799,2017/10/27,13:18,41-05.58N,141-42.62E,165,16.759,33.8277
800,2017/10/27,13:19,41-05.22N,141-42.74E,165,16.765,33.8232
801,2017/10/27,13:20,41-04.85N,141-42.86E,166,16.767,33.8203
802,2017/10/27,13:21,41-04.48N,141-42.98E,165,16.767,33.8174
803,2017/10/27,13:22,41-04.11N,141-43.10E,166,16.769,33.8143
804,2017/10/27,13:23,41-03.74N,141-43.22E,166,16.761,33.8106
805,2017/10/27,13:24,41-03.37N,141-43.33E,166,16.752,33.8074
806,2017/10/27,13:25,41-03.01N,141-43.45E,166,16.819,33.8035
807,2017/10/27,13:26,41-02.64N,141-43.58E,165,16.877,33.8029
808,2017/10/27,13:27,41-02.27N,141-43.70E,166,16.91,33.8013
809,2017/10/27,13:28,41-01.90N,141-43.82E,165,16.937,33.7969
810,2017/10/27,13:29,41-01.54N,141-43.95E,164,16.999,33.794
811,2017/10/27,13:30,41-01.17N,141-44.08E,164,17.101,33.7921
812,2017/10/27,13:31,41-00.80N,141-44.21E,165,17.104,33.7988
813,2017/10/27,13:32,41-00.42N,141-44.33E,165,17.088,33.7975
814,2017/10/27,13:33,41-00.06N,141-44.45E,165,17.091,33.7912
815,2017/10/27,13:34,40-59.69N,141-44.58E,165,17.085,33.7867
816,2017/10/27,13:35,40-59.33N,141-44.70E,166,17.076,33.784
817,2017/10/27,13:36,40-58.96N,141-44.82E,166,17.066,33.7814
818,2017/10/27,13:37,40-58.59N,141-44.93E,166,17.062,33.7835
819,2017/10/27,13:38,40-58.23N,141-45.05E,166,17.068,33.7864
820,2017/10/27,13:39,40-57.87N,141-45.16E,166,17.058,33.7886
821,2017/10/27,13:40,40-57.50N,141-45.28E,165,17.006,33.7928
822,2017/10/27,13:41,40-57.14N,141-45.41E,164,16.896,33.7923
823,2017/10/27,13:42,40-56.78N,141-45.54E,165,16.874,33.7892
824,2017/10/27,13:43,40-56.40N,141-45.67E,165,16.889,33.7859
825,2017/10/27,13:44,40-56.04N,141-45.79E,165,16.919,33.786
826,2017/10/27,13:45,40-55.67N,141-45.91E,165,17.065,33.7906
827,2017/10/27,13:46,40-55.30N,141-46.03E,166,17.19,33.7995
828,2017/10/27,13:47,40-54.93N,141-46.14E,166,17.212,33.825
829,2017/10/27,13:48,40-54.56N,141-46.26E,166,17.216,33.833
830,2017/10/27,13:49,40-54.20N,141-46.37E,167,17.232,33.8315
831,2017/10/27,13:50,40-53.82N,141-46.48E,167,17.182,33.8328
832,2017/10/27,13:51,40-53.46N,141-46.59E,167,17.181,33.8288
833,2017/10/27,13:52,40-53.09N,141-46.70E,167,17.174,33.8155
834,2017/10/27,13:53,40-52.72N,141-46.81E,167,17.175,33.8137
835,2017/10/27,13:54,40-52.35N,141-46.91E,167,17.173,33.8151
836,2017/10/27,13:55,40-51.97N,141-47.02E,167,17.176,33.8187
837,2017/10/27,13:56,40-51.60N,141-47.12E,167,17.17,33.8222
838,2017/10/27,13:57,40-51.24N,141-47.22E,168,17.162,33.8256
839,2017/10/27,13:58,40-50.87N,141-47.33E,167,17.161,33.8242
840,2017/10/27,13:59,40-50.50N,141-47.43E,168,17.151,33.8249
841,2017/10/27,14:00,40-50.13N,141-47.53E,168,17.154,33.8229
842,2017/10/27,14:01,40-49.76N,141-47.63E,168,17.159,33.8222
843,2017/10/27,14:02,40-49.40N,141-47.73E,168,17.163,33.8222
844,2017/10/27,14:03,40-49.03N,141-47.83E,168,17.157,33.8255
845,2017/10/27,14:04,40-48.66N,141-47.94E,168,17.151,33.8303
846,2017/10/27,14:05,40-48.29N,141-48.03E,168,17.155,33.8326
847,2017/10/27,14:06,40-47.91N,141-48.13E,168,17.163,33.8332
848,2017/10/27,14:07,40-47.55N,141-48.23E,168,17.176,33.8342
849,2017/10/27,14:08,40-47.18N,141-48.33E,168,17.187,33.8346
850,2017/10/27,14:09,40-46.81N,141-48.43E,168,17.197,33.8363
851,2017/10/27,14:10,40-46.44N,141-48.53E,168,17.213,33.8381
852,2017/10/27,14:11,40-46.07N,141-48.63E,168,17.218,33.8411
853,2017/10/27,14:12,40-45.70N,141-48.72E,168,17.219,33.8432
854,2017/10/27,14:13,40-45.33N,141-48.82E,168,17.217,33.8447
855,2017/10/27,14:14,40-44.95N,141-48.92E,168,17.206,33.8456
856,2017/10/27,14:15,40-44.59N,141-49.01E,168,17.155,33.8445
857,2017/10/27,14:16,40-44.22N,141-49.11E,167,17.119,33.842
858,2017/10/27,14:17,40-43.85N,141-49.21E,168,17.161,33.8377
859,2017/10/27,14:18,40-43.48N,141-49.31E,168,17.125,33.8312
860,2017/10/27,14:19,40-43.12N,141-49.40E,168,17.057,33.829
861,2017/10/27,14:20,40-42.76N,141-49.50E,168,16.943,33.8274
862,2017/10/27,14:21,40-42.40N,141-49.60E,168,16.844,33.8239
863,2017/10/27,14:22,40-42.03N,141-49.70E,167,16.828,33.8234
864,2017/10/27,14:23,40-41.67N,141-49.81E,167,16.894,33.8247
865,2017/10/27,14:24,40-41.29N,141-49.91E,168,16.912,33.8278
866,2017/10/27,14:25,40-40.93N,141-50.01E,168,16.89,33.8297
867,2017/10/27,14:26,40-40.57N,141-50.11E,166,16.814,33.832
868,2017/10/27,14:27,40-40.22N,141-50.23E,164,16.74,33.8301
869,2017/10/27,14:28,40-39.86N,141-50.36E,164,16.834,33.8176
870,2017/10/27,14:29,40-39.50N,141-50.49E,165,16.865,33.8157
871,2017/10/27,14:30,40-39.15N,141-50.61E,165,16.892,33.8195
872,2017/10/27,14:31,40-38.80N,141-50.72E,165,16.923,33.8209
873,2017/10/27,14:32,40-38.45N,141-50.85E,165,16.947,33.8225
874,2017/10/27,14:33,40-38.10N,141-50.98E,164,16.932,33.8232
875,2017/10/27,14:34,40-37.75N,141-51.10E,164,16.93,33.8231
876,2017/10/27,14:35,40-37.40N,141-51.23E,164,16.934,33.8214
877,2017/10/27,14:36,40-37.05N,141-51.36E,164,16.967,33.8187
878,2017/10/27,14:37,40-36.70N,141-51.48E,164,17.008,33.8196
879,2017/10/27,14:38,40-36.35N,141-51.61E,164,17.025,33.8219
880,2017/10/27,14:39,40-36.01N,141-51.74E,163,17.042,33.8239
881,2017/10/27,14:40,40-35.66N,141-51.87E,164,17.041,33.8241
882,2017/10/27,14:41,40-35.30N,141-52.00E,164,17.065,33.8246
883,2017/10/27,14:42,40-34.95N,141-52.12E,164,17.077,33.8261
884,2017/10/27,14:43,40-34.60N,141-52.25E,164,17.078,33.8306
885,2017/10/27,14:44,40-34.26N,141-52.39E,163,17.082,33.8315
886,2017/10/27,14:45,40-33.91N,141-52.53E,162,17.079,33.8344
887,2017/10/27,14:46,40-33.56N,141-52.67E,162,17.074,33.8357
888,2017/10/27,14:47,40-33.21N,141-52.81E,162,17.088,33.8345
889,2017/10/27,14:48,40-32.86N,141-52.96E,162,17.101,33.8363
890,2017/10/27,14:49,40-32.52N,141-53.09E,162,17.106,33.839
891,2017/10/27,14:50,40-32.17N,141-53.23E,162,17.109,33.8402
892,2017/10/27,14:51,40-31.83N,141-53.37E,162,17.096,33.841
893,2017/10/27,14:52,40-31.47N,141-53.52E,162,17.081,33.8394
894,2017/10/27,14:53,40-31.13N,141-53.66E,162,17.046,33.8341
895,2017/10/27,14:54,40-30.78N,141-53.79E,163,17.006,33.8277
896,2017/10/27,14:55,40-30.44N,141-53.93E,163,16.967,33.8201
897,2017/10/27,14:56,40-30.09N,141-54.06E,163,16.958,33.8126
898,2017/10/27,14:57,40-29.74N,141-54.20E,163,16.945,33.8083
899,2017/10/27,14:58,40-29.39N,141-54.34E,163,16.92,33.8067
900,2017/10/27,14:59,40-29.05N,141-54.47E,163,16.896,33.8046
901,2017/10/27,15:00,40-28.70N,141-54.61E,163,16.878,33.7988
902,2017/10/27,15:01,40-28.34N,141-54.75E,163,16.843,33.7952
903,2017/10/27,15:02,40-28.00N,141-54.89E,163,16.828,33.7898
904,2017/10/27,15:03,40-27.65N,141-55.03E,162,16.793,33.7869
905,2017/10/27,15:04,40-27.30N,141-55.17E,163,16.769,33.7816
906,2017/10/27,15:05,40-26.95N,141-55.30E,163,16.744,33.7745
907,2017/10/27,15:06,40-26.59N,141-55.45E,163,16.722,33.77
908,2017/10/27,15:07,40-26.25N,141-55.58E,162,16.699,33.7654
909,2017/10/27,15:08,40-25.90N,141-55.72E,163,16.675,33.76
910,2017/10/27,15:09,40-25.54N,141-55.87E,162,16.661,33.755
911,2017/10/27,15:10,40-25.19N,141-56.01E,162,16.651,33.7513
912,2017/10/27,15:11,40-24.83N,141-56.16E,162,16.641,33.7489
913,2017/10/27,15:12,40-24.48N,141-56.30E,163,16.632,33.7476
914,2017/10/27,15:13,40-24.13N,141-56.44E,162,16.61,33.7463
915,2017/10/27,15:14,40-23.77N,141-56.58E,162,16.593,33.742
916,2017/10/27,15:15,40-23.41N,141-56.72E,162,16.569,33.7387
917,2017/10/27,15:16,40-23.07N,141-56.86E,162,16.535,33.7343
918,2017/10/27,15:17,40-22.71N,141-57.00E,162,16.503,33.7289
919,2017/10/27,15:18,40-22.36N,141-57.15E,162,16.468,33.7229
920,2017/10/27,15:19,40-22.00N,141-57.29E,163,16.423,33.7156
921,2017/10/27,15:20,40-21.64N,141-57.43E,163,16.382,33.7085
922,2017/10/27,15:21,40-21.28N,141-57.57E,163,16.296,33.7005
923,2017/10/27,15:22,40-20.93N,141-57.71E,162,16.215,33.687
924,2017/10/27,15:23,40-20.58N,141-57.85E,163,16.127,33.6686
925,2017/10/27,15:24,40-20.22N,141-57.99E,163,16.075,33.6497
926,2017/10/27,15:25,40-19.86N,141-58.14E,162,16.034,33.6356
927,2017/10/27,15:26,40-19.50N,141-58.28E,163,15.977,33.625
928,2017/10/27,15:27,40-19.14N,141-58.42E,163,15.872,33.6151
929,2017/10/27,15:28,40-18.79N,141-58.55E,163,15.79,33.598
930,2017/10/27,15:29,40-18.44N,141-58.69E,163,15.74,33.5775
931,2017/10/27,15:30,40-18.08N,141-58.83E,163,15.729,33.5639
932,2017/10/27,15:31,40-17.72N,141-58.97E,163,15.509,33.5526
933,2017/10/27,15:32,40-17.36N,141-59.11E,163,15.343,33.5373
934,2017/10/27,15:33,40-17.00N,141-59.25E,163,15.3,33.4834
935,2017/10/27,15:34,40-16.65N,141-59.38E,163,15.29,33.4599
936,2017/10/27,15:35,40-16.29N,141-59.52E,163,15.269,33.4531
937,2017/10/27,15:36,40-15.93N,141-59.66E,163,15.236,33.4488
938,2017/10/27,15:37,40-15.56N,141-59.80E,163,15.188,33.4428
939,2017/10/27,15:38,40-15.20N,141-59.94E,163,15.136,33.4369
940,2017/10/27,15:39,40-14.85N,142-00.08E,163,15.076,33.4303
941,2017/10/27,15:40,40-14.49N,142-00.22E,163,15.061,33.4209
942,2017/10/27,15:41,40-14.13N,142-00.35E,163,15.045,33.4128
943,2017/10/27,15:42,40-13.76N,142-00.50E,163,15.046,33.4084
944,2017/10/27,15:43,40-13.40N,142-00.63E,163,15.019,33.4091
945,2017/10/27,15:44,40-13.04N,142-00.77E,163,14.984,33.4068